THOR ABLESTAR DEB, 416

Orbit data source: Space-Track

THOR ABLESTAR DEB, 416 is space debris in LEO originally from a launch on Thu, 29 Jun 1961 UTC launched from the Air Force Eastern Test Range (AFETR). Debris objects in space refer to the collection of defunct objects orbiting the Earth. Examples of debris include non-operational satellites, rocket bodies, and fragments generated from explosions, collisions, or faulty payload assembly.

Loading next visibility...
Identifier
416, 1961-015ER
Orbit
LEO
Last TLE update
10 hours ago
Origin
Manufacturer
Unknown
Mission
Spacecraft
Bus & Motor
Unknown
Mass
Unknown
Launch date (UTC)
1961-06-29 (64 years ago)
Launch vehicle
Unknown
Launch site
Air Force Eastern Test Range (AFETR)
Object type
Payload
Rocket body
Debris
Shape & HBR
Unknown
Radar Cross Section
Small (<0.1 m²)

Expand to show TLE details & history

TLE from 10 hours ago
0 THOR ABLESTAR DEB
1 00416U 61015ER  25167.39031949  .00000449  00000-0  27172-3 0  9992
2 00416  66.4885 136.5894 0071286  50.9167 309.8233 14.14294470280114
Epoch: 2025-06-16T09:22Z
TLE epoch observation values (Epoch: 2025-06-16T09:22:03.603Z)
Latitude
-0.00003°
Longitude
91.17263°
Altitude
814.028 km
Speed
7.464 km/s
True Right ascension
09h 06m 21s
True Declination
0° 00' 00"
Sunlit
Object was in daylight at epoch
Visualization orbit readout
Latitude
-36.24323°
Longitude
71.60661°
Altitude
857.674 km
Speed
7.423 km/s
Apparent Right ascension
11h 33m 10s
Apparent Declination
-72° 33' 10"
Sunlit
Object is in daylight
Visualization observer readout
Local Sidereal Time
06:02:33
Azimuth
158.536° S
Elevation
-35.643°
Doppler factor
1
Orbital elements
Apogee altitude
894.602 km
Perigee altitude
791.647 km
Semi-major axis
7,221.262 km
Eccentricity
0.00713
Inclination
66.4885°
RAAN
136.5894°
Arg. of periapsis
50.9167°
True anomaly
Unknown
Mean anomaly
309.8233°
Eccentric anomaly
Unknown
Mean motion
3.53691 °/min
Orbital period
101.78 mins
BSTAR
0.00027172
Loading maneuver chart data...
Loading SW <> Apogee altitude chart data...

THOR ABLESTAR DEB Visibility forecast

Observer location: undefined°, undefined°

Span
Click to sort rows by Start time (UTC) header in descending order
Start Az.
Max El. time (UTC)
Max El. Az.
Max El.
End time (UTC)
End Az.
9 mins2025-06-16 23:03:47.215Z181.503° SSW2025-06-16 23:07:47.215Z127.559° SE34.671°2025-06-16 23:12:47.215Z43.944° NE
7 mins2025-06-17 00:49:47.215Z263.2° W2025-06-17 00:52:47.215Z305.952° NW24.164°2025-06-17 00:56:47.215Z2.725° NNE
8 mins2025-06-17 07:58:47.215Z352.451° N2025-06-17 08:02:47.215Z63.172° ENE32.8°2025-06-17 08:06:47.215Z118.846° SE
8 mins2025-06-17 09:43:47.215Z297.636° NW2025-06-17 09:46:47.215Z253.207° W26.416°2025-06-17 09:51:47.215Z191.653° SSW
|